Lid_Strength_Index
0 2 2 2 7 7 10 9 6 7 7 5 4 5 6 5 8 11 1 -0 -0 -0 -1 -1 -1 -2 -1 -1 -2 -2 -2 -2 -2 -2 -2 -2 -2 -2 -2 -2 -2 -3 -2 -2 -2 -2 -2 -2 -2
2 3 2 4 8 10 10 7 8 7 5 4 5 5 6 7 4 3 2 -0 -1 -1 -1 -1 -1 -1 -1 -2 -2 -2 -2 -2 -2 -2 -2 -2 -2 -2 -2 -2 -2 -2 -2 -2 -2 -2 -2 -2 -2
2 3 5 6 8 11 10 7 6 6 5 5 6 4 5 6 3 3 0 -0 -1 -1 -1 -1 -1 -1 -2 -2 -2 -2 -2 -2 -2 -2 -2 -2 -2 -2 -2 -2 -2 -3 -2 -2 -2 -2 -2 -2 -2
3 3 4 8 10 9 8 7 5 6 5 4 5 6 4 2 3 1 -0 -1 -0 -1 -1 -1 -1 -1 -2 -2 -2 -2 -2 -2 -2 -2 -2 -2 -2 -2 -2 -2 -2 -2 -2 -2 -2 -2 -2 -2 -2
2 4 8 9 9 8 7 5 5 6 5 5 5 6 5 3 1 0 0 -0 -0 -1 -1 -1 -1 -1 -1 -2 -2 -2 -2 -2 -2 -2 -2 -2 -2 -2 -2 -2 -3 -2 -2 -2 -2 -2 -2 -2 -2
5 4 9 11 9 8 7 5 5 5 5 5 5 5 5 2 1 1 0 -0 -1 -0 -1 -1 0 -1 -1 -1 -2 -2 -2 -2 -2 -2 -2 -2 -2 -2 -2 -2 -2 -2 -2 -2 -2 -2 -2 -2 -2
6 7 9 9 9 9 8 5 6 6 5 5 4 6 4 3 1 0 0 -0 -1 -1 -1 -1 -1 -1 0 -0 -1 -1 -2 -2 -2 -2 -2 -2 -2 -2 -2 -2 -2 -2 -1 -2 -2 -2 -2 -2 -2
4 6 9 9 9 9 7 6 5 6 6 3 3 6 6 3 1 0 0 -0 -0 -1 -1 -1 -1 -1 -1 -1 1 -0 -1 -1 -1 -2 -1 -1 -1 -1 -1 -1 -2 -2 -2 -1 -2 -2 -2 -2 -2
4 9 10 9 9 8 6 7 6 5 5 4 4 4 3 2 1 1 1 1 0 0 -0 -1 -1 -1 -1 -1 -0 1 0 -0 -0 -1 -0 -0 -1 -1 -1 -1 -2 -2 -2 -2 -1 -1 -1 -2 -1
6 9 9 6 6 7 7 6 6 6 6 5 5 3 2 2 2 3 3 2 2 1 0 -1 -1 -1 -1 -1 -1 -1 -1 -1 -1 -1 -2 -1 -1 -1 -1 -0 -1 -1 -2 -2 -1 -1 -2 -1 -1
6 9 6 6 6 5 6 7 6 7 7 6 5 4 3 3 3 3 2 2 2 1 0 -0 -1 -1 -1 -1 -1 -1 -1 -1 -1 -1 -1 -2 -1 -1 -1 -1 -1 -1 0 -1 -1 -0 -1 -1 -1
8 6 6 6 6 6 7 5 7 6 5 5 4 3 3 3 3 3 3 2 1 1 0 -0 -1 -1 -1 -1 -1 -1 -1 -1 -1 -1 -1 -1 -1 -1 -1 -1 -1 -2 -1 -1 -1 -1 -1 -1 -1
7 6 6 5 6 6 6 6 6 6 5 5 5 4 3 3 3 2 2 1 1 1 1 0 -1 -1 -1 -1 -1 -1 -1 -1 -1 -1 -1 -1 -1 -1 -1 -0 -1 -1 -1 -1 -1 -1 -1 -1 -1
6 6 6 5 6 6 7 6 6 5 4 4 6 5 4 4 3 2 2 2 1 1 1 0 -0 -1 -1 -1 -1 -1 -1 -1 -1 -1 -1 -1 -1 -1 -1 0 0 -0 -0 -1 -1 -1 -1 -1 -1
6 8 7 6 6 7 6 8 8 5 4 5 4 4 4 4 3 3 2 2 1 1 0 0 0 -1 -0 -0 -1 -1 -1 -1 -1 -1 -1 -1 -1 -1 -0 -0 0 0 -0 -1 -1 -1 -1 -1 -1
8 7 11 8 6 6 7 11 6 4 5 5 5 4 3 3 3 3 2 1 1 1 1 0 -0 -0 -0 -0 -1 -1 -1 -1 -1 -1 -1 -1 -1 -1 -1 -1 -0 -0 -0 -0 -1 -0 -0 -0 -0
9 11 10 10 6 7 8 9 6 4 5 5 5 4 4 3 3 2 2 2 1 1 1 1 0 0 -0 -0 -1 -1 -1 -1 -1 -1 -1 -1 -1 -1 -1 -1 -1 -1 -1 -1 -0 -0 -0 0 0
11 12 10 10 8 7 8 9 7 6 5 5 5 4 4 4 4 3 1 1 1 1 1 0 0 0 -0 -0 -0 -0 -0 -1 -1 -1 -1 -1 -1 -1 -1 -1 -1 -1 -0 -0 -0 0 -0 0 0
8 10 10 8 7 8 9 9 8 7 6 6 5 5 4 4 2 2 2 2 1 1 1 1 1 0 0 1 1 1 1 0 0 -1 -1 -1 -1 -1 -1 -1 -0 -1 0 0 -0 0 1 1 0
9 11 10 8 7 9 9 9 7 7 7 6 6 6 5 4 3 2 2 2 2 1 1 1 1 1 1 1 1 1 1 0 -0 -0 -1 -1 -1 -1 -1 -0 -0 -0 0 0 0 0 1 1 0
10 11 11 11 9 8 10 11 9 7 6 5 5 5 5 5 4 4 3 2 2 2 1 1 1 1 0 0 0 1 1 1 1 1 0 -0 -1 -1 -1 -1 -0 -0 -0 1 0 0 1 2 1
13 9 10 11 12 15 9 15 9 7 7 7 6 5 5 5 4 3 3 2 2 1 1 1 1 1 0 0 1 1 2 3 2 2 0 0 -1 -0 -1 -1 -0 -0 -0 0 0 0 0 1 2
11 8 10 10 12 13 13 15 12 8 9 8 7 5 4 4 4 4 4 2 2 1 1 1 1 1 0 0 1 1 2 1 1 2 1 0 -0 -0 -0 -0 -0 -0 -0 0 0 0 1 1 1
8 10 10 11 12 18 13 13 14 11 9 8 6 5 5 4 4 3 3 3 3 1 1 1 1 2 1 1 1 1 2 2 2 1 2 1 1 0 -0 -0 -0 -0 0 0 0 0 0 1 1
9 12 18 19 19 18 11 12 13 9 8 8 7 6 5 4 4 3 4 4 4 3 2 2 2 2 1 1 1 1 1 1 2 1 1 2 1 1 1 0 0 0 0 0 0 0 0 1 1
11 12 16 20 18 15 12 15 12 8 6 6 5 5 4 4 4 4 5 4 4 5 4 4 4 4 3 2 1 1 1 1 1 1 1 1 1 1 1 1 1 0 0 1 1 1 1 0 1
12 14 9 14 15 16 13 11 9 8 8 6 6 5 5 4 5 5 5 5 5 4 4 4 5 5 5 4 3 1 1 1 1 1 1 1 1 1 0 1 1 1 1 1 1 2 2 2 1
10 8 16 16 20 20 14 13 13 10 9 7 6 6 5 5 5 4 4 4 4 4 4 4 4 5 5 4 4 3 2 1 1 1 1 1 1 1 1 1 1 2 1 1 2 2 2 2 2
13 13 12 12 13 17 17 13 8 8 8 8 7 6 5 5 4 4 5 5 4 4 4 4 4 4 4 4 4 3 3 2 1 1 1 1 1 1 1 1 1 2 2 2 2 2 2 3 3
9 11 11 15 17 14 15 14 7 7 7 7 6 6 5 5 4 5 5 5 4 5 4 4 4 4 4 4 4 4 3 3 2 1 1 1 1 1 1 1 1 2 2 2 3 3 3 3 3